Back to catalog

ONEWEB-0555

AliveCommunicationsPO
NORAD 56057·PAYLOAD·🇬🇧 United Kingdom

Launched Mar 26, 2023 from Satish Dhawan Space Centre

Loading…

Next Passes (next 24 hours)

TLE

FreshSource: CelesTrak SupGP

Epoch: Sep 14, 2026, 17:45 UTC

1 56057C 23043M   26257.73973796  .00002857  00000+0  74827-2 0  2576
2 56057  87.9146 210.9905 0001866  95.3104 302.9961 13.16587891    19

Track ONEWEB-0555 in real time with AllMySat

Download on the App Store